Wetterdaten: Woche 27.01.14 - 02.02.14 (KW5)
Datum Zeit Temperatur Luftfeuchte Luftdruck Niederschlag Windrichtung Sonnenschein Solar Wind
27.01.2014 00:00 0,5 C 94 % 998,3 hPa 0,8 l/m SW 0,00 h 0 W/m 15,2 km/h (3 Bft)
27.01.2014 01:00 0,3 C 96 % 997,2 hPa 0,8 l/m SW 0,00 h 0 W/m 17,3 km/h (3 Bft)
27.01.2014 02:00 0,6 C 97 % 996,8 hPa 0,0 l/m SW 0,00 h 0 W/m 14,5 km/h (3 Bft)
27.01.2014 03:00 1,4 C 97 % 997,0 hPa 0,4 l/m SW 0,00 h 0 W/m 17,6 km/h (3 Bft)
27.01.2014 04:00 2,0 C 98 % 997,3 hPa 0,2 l/m W-SW 0,00 h 0 W/m 22,9 km/h (4 Bft)
27.01.2014 05:00 2,4 C 97 % 997,8 hPa 0,0 l/m W 0,00 h 0 W/m 13,6 km/h (3 Bft)
27.01.2014 06:00 2,3 C 96 % 998,1 hPa 0,0 l/m SW 0,00 h 0 W/m 13,0 km/h (3 Bft)
27.01.2014 07:00 1,9 C 97 % 998,6 hPa 0,0 l/m SW 0,00 h 0 W/m 9,5 km/h (2 Bft)
27.01.2014 08:00 2,2 C 97 % 999,0 hPa 0,0 l/m W 0,00 h 15 W/m 10,5 km/h (2 Bft)
27.01.2014 09:00 2,3 C 96 % 1000,0 hPa 0,0 l/m W 0,00 h 16 W/m 10,2 km/h (2 Bft)
27.01.2014 10:00 1,8 C 96 % 1000,8 hPa 2,2 l/m W 0,00 h 74 W/m 19,6 km/h (3 Bft)
27.01.2014 11:00 2,1 C 94 % 1000,9 hPa 0,4 l/m SW 0,08 h 122 W/m 21,0 km/h (4 Bft)
27.01.2014 12:00 3,1 C 88 % 1000,4 hPa 0,0 l/m W-SW 0,75 h 371 W/m 23,5 km/h (4 Bft)
27.01.2014 13:00 3,8 C 82 % 999,9 hPa 0,0 l/m W-SW 0,83 h 353 W/m 19,6 km/h (3 Bft)
27.01.2014 14:00 4,5 C 73 % 999,3 hPa 0,0 l/m W-SW 0,75 h 272 W/m 21,5 km/h (4 Bft)
27.01.2014 15:00 3,5 C 75 % 999,2 hPa 0,0 l/m W-SW 0,17 h 93 W/m 14,9 km/h (3 Bft)
27.01.2014 16:00 2,6 C 76 % 999,3 hPa 0,0 l/m W-SW 0,08 h 38 W/m 13,4 km/h (3 Bft)
27.01.2014 17:00 1,5 C 82 % 999,9 hPa 0,0 l/m W-SW 0,08 h 9 W/m 6,8 km/h (2 Bft)
27.01.2014 18:00 0,7 C 87 % 1000,4 hPa 0,0 l/m W-SW 0,00 h 0 W/m 5,5 km/h (1 Bft)
27.01.2014 19:00 0,2 C 91 % 1000,7 hPa 0,0 l/m W-SW 0,00 h 0 W/m 7,2 km/h (2 Bft)
27.01.2014 20:00 -0,1 C 92 % 1001,0 hPa 0,0 l/m W-SW 0,00 h 0 W/m 5,1 km/h (1 Bft)
27.01.2014 21:00 -0,2 C 93 % 1001,1 hPa 0,0 l/m W-SW 0,00 h 0 W/m 2,5 km/h (1 Bft)
27.01.2014 22:00 -0,2 C 94 % 1001,1 hPa 0,0 l/m W-SW 0,00 h 0 W/m 3,5 km/h (1 Bft)
27.01.2014 23:00 -0,2 C 94 % 1001,2 hPa 0,0 l/m N 0,00 h 0 W/m 1,3 km/h (1 Bft)
28.01.2014 00:00 -0,2 C 94 % 1001,1 hPa 0,0 l/m W-SW 0,00 h 0 W/m 1,3 km/h (1 Bft)
28.01.2014 01:00 -0,1 C 95 % 1001,0 hPa 0,0 l/m W-SW 0,00 h 0 W/m 1,2 km/h (1 Bft)
28.01.2014 02:00 -0,3 C 95 % 1001,1 hPa 0,0 l/m N 0,00 h 0 W/m 1,5 km/h (1 Bft)
28.01.2014 03:00 -0,4 C 95 % 1000,9 hPa 0,0 l/m N 0,00 h 0 W/m 0,7 km/h (0 Bft)
28.01.2014 04:00 -0,6 C 95 % 1001,2 hPa 0,0 l/m N 0,00 h 0 W/m 1,3 km/h (1 Bft)
28.01.2014 05:00 -0,6 C 95 % 1001,5 hPa 0,0 l/m W-SW 0,00 h 0 W/m 1,5 km/h (1 Bft)
28.01.2014 06:00 -0,6 C 95 % 1001,8 hPa 0,0 l/m N 0,00 h 0 W/m 0,4 km/h (0 Bft)
28.01.2014 07:00 -0,7 C 95 % 1001,9 hPa 0,0 l/m N 0,00 h 0 W/m 0,0 km/h (0 Bft)
28.01.2014 08:00 -0,9 C 95 % 1002,0 hPa 0,0 l/m N 0,00 h 21 W/m 0,3 km/h (0 Bft)
28.01.2014 09:00 -0,4 C 96 % 1001,9 hPa 0,0 l/m W-SW 0,42 h 103 W/m 0,9 km/h (0 Bft)
28.01.2014 10:00 1,2 C 92 % 1002,1 hPa 0,0 l/m W-SW 1,00 h 236 W/m 5,2 km/h (1 Bft)
28.01.2014 11:00 2,6 C 83 % 1001,8 hPa 0,0 l/m W-SW 1,00 h 311 W/m 5,9 km/h (2 Bft)
28.01.2014 12:00 3,7 C 77 % 1001,2 hPa 0,0 l/m W-SW 0,67 h 294 W/m 6,7 km/h (2 Bft)
28.01.2014 13:00 3,2 C 76 % 1000,6 hPa 0,0 l/m SO 0,00 h 89 W/m 4,9 km/h (1 Bft)
28.01.2014 14:00 3,3 C 73 % 1000,0 hPa 0,0 l/m SO 0,25 h 129 W/m 5,7 km/h (1 Bft)
28.01.2014 15:00 3,8 C 70 % 999,8 hPa 0,0 l/m SO 0,67 h 149 W/m 7,2 km/h (2 Bft)
28.01.2014 16:00 2,8 C 75 % 999,2 hPa 0,0 l/m O-SO 0,50 h 56 W/m 4,7 km/h (1 Bft)
28.01.2014 17:00 1,8 C 80 % 998,9 hPa 0,0 l/m O-SO 0,08 h 9 W/m 4,0 km/h (1 Bft)
28.01.2014 18:00 -0,4 C 88 % 998,8 hPa 0,0 l/m N 0,00 h 0 W/m 0,8 km/h (0 Bft)
28.01.2014 19:00 -1,2 C 91 % 998,7 hPa 0,0 l/m N 0,00 h 0 W/m 0,8 km/h (0 Bft)
28.01.2014 20:00 -1,5 C 92 % 998,7 hPa 0,0 l/m N 0,00 h 0 W/m 1,6 km/h (1 Bft)
28.01.2014 21:00 -1,6 C 94 % 998,8 hPa 0,0 l/m O 0,00 h 0 W/m 3,6 km/h (1 Bft)
28.01.2014 22:00 -1,1 C 95 % 998,9 hPa 0,0 l/m O-NO 0,00 h 0 W/m 6,6 km/h (2 Bft)
28.01.2014 23:00 -1,0 C 94 % 999,1 hPa 0,0 l/m O-NO 0,00 h 0 W/m 8,4 km/h (2 Bft)
29.01.2014 00:00 -1,0 C 94 % 999,1 hPa 0,0 l/m O 0,00 h 0 W/m 7,9 km/h (2 Bft)
29.01.2014 01:00 -1,0 C 92 % 998,8 hPa 0,0 l/m O 0,00 h 0 W/m 9,3 km/h (2 Bft)
29.01.2014 02:00 -1,1 C 91 % 998,8 hPa 0,0 l/m O-SO 0,00 h 0 W/m 9,9 km/h (2 Bft)
29.01.2014 03:00 -1,2 C 91 % 998,8 hPa 0,0 l/m O 0,00 h 0 W/m 10,2 km/h (2 Bft)
29.01.2014 04:00 -1,3 C 90 % 998,6 hPa 0,0 l/m O-SO 0,00 h 0 W/m 9,9 km/h (2 Bft)
29.01.2014 05:00 -1,3 C 90 % 998,5 hPa 0,0 l/m O 0,00 h 0 W/m 10,7 km/h (2 Bft)
29.01.2014 06:00 -1,6 C 90 % 998,5 hPa 0,0 l/m O 0,00 h 0 W/m 12,1 km/h (2 Bft)
29.01.2014 07:00 -1,7 C 90 % 998,8 hPa 0,0 l/m O 0,00 h 0 W/m 12,9 km/h (3 Bft)
29.01.2014 08:00 -1,8 C 90 % 999,4 hPa 0,0 l/m O 0,00 h 13 W/m 15,2 km/h (3 Bft)
29.01.2014 09:00 -1,7 C 89 % 999,6 hPa 0,0 l/m O-SO 0,00 h 48 W/m 16,4 km/h (3 Bft)
29.01.2014 10:00 -1,0 C 86 % 999,7 hPa 0,0 l/m O-NO 0,00 h 95 W/m 13,2 km/h (3 Bft)
29.01.2014 11:00 -0,5 C 84 % 999,7 hPa 0,0 l/m O 0,42 h 224 W/m 15,8 km/h (3 Bft)
29.01.2014 12:00 0,2 C 81 % 999,4 hPa 0,0 l/m O 1,00 h 379 W/m 15,0 km/h (3 Bft)
29.01.2014 13:00 1,6 C 76 % 999,1 hPa 0,0 l/m O-SO 1,00 h 385 W/m 13,7 km/h (3 Bft)
29.01.2014 14:00 2,2 C 74 % 998,8 hPa 0,0 l/m O-NO 1,00 h 316 W/m 14,1 km/h (3 Bft)
29.01.2014 15:00 2,1 C 75 % 999,1 hPa 0,0 l/m O-NO 0,42 h 125 W/m 13,8 km/h (3 Bft)
29.01.2014 16:00 0,9 C 80 % 999,6 hPa 0,0 l/m O-NO 0,00 h 33 W/m 8,7 km/h (2 Bft)
29.01.2014 17:00 -0,0 C 84 % 1000,0 hPa 0,0 l/m O-NO 0,00 h 6 W/m 8,3 km/h (2 Bft)
29.01.2014 18:00 -0,7 C 87 % 1000,4 hPa 0,0 l/m O-NO 0,00 h 0 W/m 10,2 km/h (2 Bft)
29.01.2014 19:00 -1,3 C 89 % 1001,1 hPa 0,0 l/m NO 0,00 h 0 W/m 8,7 km/h (2 Bft)
29.01.2014 20:00 -1,8 C 91 % 1001,6 hPa 0,0 l/m NO 0,00 h 0 W/m 9,0 km/h (2 Bft)
29.01.2014 21:00 -2,2 C 92 % 1002,1 hPa 0,0 l/m NO 0,00 h 0 W/m 10,7 km/h (2 Bft)
29.01.2014 22:00 -2,3 C 93 % 1002,5 hPa 0,0 l/m O-NO 0,00 h 0 W/m 11,6 km/h (2 Bft)
29.01.2014 23:00 -2,2 C 93 % 1003,4 hPa 0,0 l/m O-NO 0,00 h 0 W/m 8,7 km/h (2 Bft)
30.01.2014 00:00 -2,1 C 93 % 1004,1 hPa 0,0 l/m NO 0,00 h 0 W/m 4,7 km/h (1 Bft)
30.01.2014 01:00 -2,0 C 93 % 1004,7 hPa 0,0 l/m N 0,00 h 0 W/m 2,1 km/h (1 Bft)
30.01.2014 02:00 -2,0 C 93 % 1005,0 hPa 0,0 l/m NO 0,00 h 0 W/m 2,5 km/h (1 Bft)
30.01.2014 03:00 -2,1 C 93 % 1005,4 hPa 0,0 l/m N 0,00 h 0 W/m 0,1 km/h (0 Bft)
30.01.2014 04:00 -2,3 C 94 % 1005,8 hPa 0,0 l/m N 0,00 h 0 W/m 0,9 km/h (0 Bft)
30.01.2014 05:00 -2,5 C 94 % 1006,1 hPa 0,0 l/m N 0,00 h 0 W/m 2,4 km/h (1 Bft)
30.01.2014 06:00 -2,6 C 94 % 1006,1 hPa 0,0 l/m NO 0,00 h 0 W/m 4,3 km/h (1 Bft)
30.01.2014 07:00 -2,8 C 95 % 1006,3 hPa 0,0 l/m NO 0,00 h 0 W/m 5,5 km/h (1 Bft)
30.01.2014 08:00 -3,0 C 96 % 1006,6 hPa 0,0 l/m NO 0,00 h 12 W/m 7,2 km/h (2 Bft)
30.01.2014 09:00 -2,9 C 96 % 1007,0 hPa 0,0 l/m NO 0,00 h 32 W/m 6,8 km/h (2 Bft)
30.01.2014 10:00 -2,6 C 96 % 1007,0 hPa 0,0 l/m NO 0,00 h 60 W/m 7,9 km/h (2 Bft)
30.01.2014 11:00 -2,0 C 96 % 1007,1 hPa 0,0 l/m NO 0,00 h 101 W/m 9,0 km/h (2 Bft)
30.01.2014 12:00 -1,4 C 94 % 1006,8 hPa 0,0 l/m NO 0,00 h 94 W/m 9,5 km/h (2 Bft)
30.01.2014 13:00 -1,3 C 93 % 1005,7 hPa 0,0 l/m N-NO 0,00 h 74 W/m 12,5 km/h (3 Bft)
30.01.2014 14:00 -1,1 C 92 % 1004,9 hPa 0,0 l/m N-NO 0,00 h 51 W/m 11,7 km/h (2 Bft)
30.01.2014 15:00 -0,8 C 92 % 1004,8 hPa 0,0 l/m NO 0,00 h 30 W/m 11,7 km/h (2 Bft)
30.01.2014 16:00 -0,8 C 91 % 1004,3 hPa 0,0 l/m N-NO 0,00 h 10 W/m 14,4 km/h (3 Bft)
30.01.2014 17:00 -1,0 C 92 % 1004,0 hPa 0,0 l/m NO 0,00 h 0 W/m 11,1 km/h (2 Bft)
30.01.2014 18:00 -1,1 C 91 % 1004,0 hPa 0,0 l/m O-NO 0,00 h 0 W/m 13,4 km/h (3 Bft)
30.01.2014 19:00 -1,2 C 91 % 1004,0 hPa 0,0 l/m NO 0,00 h 0 W/m 9,5 km/h (2 Bft)
30.01.2014 20:00 -1,4 C 91 % 1003,8 hPa 0,0 l/m NO 0,00 h 0 W/m 11,4 km/h (2 Bft)
30.01.2014 21:00 -1,5 C 91 % 1004,4 hPa 0,0 l/m NO 0,00 h 0 W/m 4,8 km/h (1 Bft)
30.01.2014 22:00 -1,5 C 91 % 1004,9 hPa 0,0 l/m NO 0,00 h 0 W/m 3,1 km/h (1 Bft)
30.01.2014 23:00 -1,6 C 92 % 1005,0 hPa 0,0 l/m N 0,00 h 0 W/m 1,1 km/h (0 Bft)
31.01.2014 00:00 -1,6 C 92 % 1005,5 hPa 0,0 l/m N-NO 0,00 h 0 W/m 3,6 km/h (1 Bft)
31.01.2014 01:00 -1,7 C 93 % 1005,8 hPa 0,0 l/m N-NO 0,00 h 0 W/m 3,6 km/h (1 Bft)
31.01.2014 02:00 -1,7 C 93 % 1006,4 hPa 0,0 l/m N 0,00 h 0 W/m 2,7 km/h (1 Bft)
31.01.2014 03:00 -1,6 C 93 % 1006,3 hPa 0,0 l/m NW 0,00 h 0 W/m 3,5 km/h (1 Bft)
31.01.2014 04:00 -1,5 C 93 % 1006,8 hPa 0,0 l/m W-SW 0,00 h 0 W/m 5,2 km/h (1 Bft)
31.01.2014 05:00 -1,4 C 93 % 1007,2 hPa 0,0 l/m N 0,00 h 0 W/m 2,9 km/h (1 Bft)
31.01.2014 06:00 -1,3 C 94 % 1007,8 hPa 0,0 l/m N 0,00 h 0 W/m 0,8 km/h (0 Bft)
31.01.2014 07:00 -1,3 C 94 % 1008,1 hPa 0,0 l/m N 0,00 h 0 W/m 0,9 km/h (0 Bft)
31.01.2014 08:00 -1,2 C 94 % 1008,8 hPa 0,0 l/m SW 0,00 h 12 W/m 7,5 km/h (2 Bft)
31.01.2014 09:00 -0,9 C 94 % 1009,0 hPa 0,0 l/m SW 0,08 h 70 W/m 6,3 km/h (2 Bft)
31.01.2014 10:00 -0,2 C 93 % 1009,6 hPa 0,0 l/m SW 0,50 h 185 W/m 7,8 km/h (2 Bft)
31.01.2014 11:00 1,4 C 87 % 1009,8 hPa 0,0 l/m W 1,00 h 333 W/m 6,0 km/h (2 Bft)
31.01.2014 12:00 3,2 C 81 % 1009,3 hPa 0,0 l/m W-SW 1,00 h 387 W/m 5,9 km/h (2 Bft)
31.01.2014 13:00 4,7 C 77 % 1009,2 hPa 0,0 l/m W-SW 1,00 h 366 W/m 8,0 km/h (2 Bft)
31.01.2014 14:00 5,4 C 75 % 1009,0 hPa 0,0 l/m SW 1,00 h 309 W/m 7,3 km/h (2 Bft)
31.01.2014 15:00 5,5 C 75 % 1009,2 hPa 0,0 l/m SW 1,00 h 199 W/m 4,7 km/h (1 Bft)
31.01.2014 16:00 4,8 C 77 % 1009,3 hPa 0,0 l/m SW 0,58 h 64 W/m 4,5 km/h (1 Bft)
31.01.2014 17:00 2,0 C 86 % 1009,9 hPa 0,0 l/m N 0,00 h 9 W/m 0,4 km/h (0 Bft)
31.01.2014 18:00 0,5 C 90 % 1010,2 hPa 0,0 l/m N 0,00 h 0 W/m 0,1 km/h (0 Bft)
31.01.2014 19:00 -0,6 C 93 % 1010,3 hPa 0,0 l/m N 0,00 h 0 W/m 0,0 km/h (0 Bft)
31.01.2014 20:00 -1,3 C 94 % 1010,2 hPa 0,0 l/m N 0,00 h 0 W/m 0,1 km/h (0 Bft)
31.01.2014 21:00 -1,8 C 95 % 1010,0 hPa 0,0 l/m N 0,00 h 0 W/m 0,1 km/h (0 Bft)
31.01.2014 22:00 -2,2 C 96 % 1009,4 hPa 0,0 l/m N 0,00 h 0 W/m 0,4 km/h (0 Bft)
31.01.2014 23:00 -2,5 C 96 % 1008,9 hPa 0,0 l/m N 0,00 h 0 W/m 0,0 km/h (0 Bft)
01.02.2014 00:00 -3,0 C 96 % 1008,6 hPa 0,0 l/m N 0,00 h 0 W/m 0,3 km/h (0 Bft)
01.02.2014 01:00 -3,3 C 96 % 1008,3 hPa 0,0 l/m N 0,00 h 0 W/m 0,4 km/h (0 Bft)
01.02.2014 02:00 -3,5 C 96 % 1008,2 hPa 0,0 l/m N 0,00 h 0 W/m 0,0 km/h (0 Bft)
01.02.2014 03:00 -3,8 C 96 % 1007,7 hPa 0,0 l/m N 0,00 h 0 W/m 0,4 km/h (0 Bft)
01.02.2014 04:00 -4,2 C 96 % 1006,9 hPa 0,0 l/m N 0,00 h 0 W/m 0,4 km/h (0 Bft)
01.02.2014 05:00 -4,4 C 96 % 1006,1 hPa 0,0 l/m N 0,00 h 0 W/m 0,3 km/h (0 Bft)
01.02.2014 06:00 -4,7 C 95 % 1005,4 hPa 0,0 l/m N 0,00 h 0 W/m 0,3 km/h (0 Bft)
01.02.2014 07:00 -4,2 C 96 % 1005,0 hPa 0,0 l/m N-NW 0,00 h 7 W/m 7,5 km/h (2 Bft)
01.02.2014 08:00 -3,5 C 96 % 1004,9 hPa 0,0 l/m N-NW 0,08 h 40 W/m 2,7 km/h (1 Bft)
01.02.2014 09:00 -2,5 C 97 % 1005,4 hPa 0,0 l/m N-NW 0,42 h 119 W/m 1,5 km/h (1 Bft)
01.02.2014 10:00 -1,2 C 98 % 1005,5 hPa 0,0 l/m NW 0,92 h 220 W/m 3,9 km/h (1 Bft)
01.02.2014 11:00 1,0 C 96 % 1005,1 hPa 0,0 l/m NW 1,00 h 338 W/m 3,7 km/h (1 Bft)
01.02.2014 12:00 4,5 C 84 % 1004,5 hPa 0,0 l/m NW 0,92 h 394 W/m 6,0 km/h (2 Bft)
01.02.2014 13:00 5,8 C 78 % 1004,4 hPa 0,0 l/m W-SW 0,17 h 154 W/m 8,2 km/h (2 Bft)
01.02.2014 14:00 4,3 C 83 % 1004,6 hPa 0,0 l/m SW 0,00 h 50 W/m 10,9 km/h (2 Bft)
01.02.2014 15:00 3,9 C 85 % 1005,2 hPa 0,0 l/m S-SW 0,00 h 64 W/m 7,9 km/h (2 Bft)
01.02.2014 16:00 3,3 C 86 % 1006,4 hPa 0,0 l/m S-SW 0,00 h 13 W/m 5,3 km/h (1 Bft)
01.02.2014 17:00 2,5 C 88 % 1007,4 hPa 0,0 l/m S-SW 0,00 h 5 W/m 7,9 km/h (2 Bft)
01.02.2014 18:00 2,1 C 89 % 1008,0 hPa 0,0 l/m S 0,00 h 0 W/m 8,2 km/h (2 Bft)
01.02.2014 19:00 1,9 C 90 % 1008,0 hPa 0,0 l/m S-SW 0,00 h 0 W/m 1,6 km/h (1 Bft)
01.02.2014 20:00 3,1 C 85 % 1007,6 hPa 0,0 l/m W 0,00 h 0 W/m 9,3 km/h (2 Bft)
01.02.2014 21:00 2,6 C 85 % 1007,6 hPa 0,0 l/m N 0,00 h 0 W/m 2,1 km/h (1 Bft)
01.02.2014 22:00 2,1 C 88 % 1007,4 hPa 0,0 l/m N 0,00 h 0 W/m 0,3 km/h (0 Bft)
01.02.2014 23:00 1,7 C 89 % 1007,5 hPa 0,0 l/m SW 0,00 h 0 W/m 3,3 km/h (1 Bft)
02.02.2014 00:00 2,2 C 90 % 1007,9 hPa 0,0 l/m W-NW 0,00 h 0 W/m 9,1 km/h (2 Bft)
02.02.2014 01:00 2,2 C 91 % 1008,3 hPa 0,0 l/m W 0,00 h 0 W/m 1,3 km/h (1 Bft)
02.02.2014 02:00 1,9 C 92 % 1008,5 hPa 0,0 l/m N 0,00 h 0 W/m 0,3 km/h (0 Bft)
02.02.2014 03:00 1,5 C 93 % 1008,6 hPa 0,2 l/m N 0,00 h 0 W/m 0,1 km/h (0 Bft)
02.02.2014 04:00 1,3 C 94 % 1008,8 hPa 0,2 l/m N 0,00 h 0 W/m 0,0 km/h (0 Bft)
02.02.2014 05:00 1,3 C 95 % 1009,4 hPa 0,0 l/m N 0,00 h 0 W/m 0,0 km/h (0 Bft)
02.02.2014 06:00 1,2 C 96 % 1010,1 hPa 0,4 l/m N 0,00 h 0 W/m 0,0 km/h (0 Bft)
02.02.2014 07:00 0,9 C 96 % 1010,8 hPa 0,0 l/m N 0,00 h 0 W/m 0,0 km/h (0 Bft)
02.02.2014 08:00 0,7 C 96 % 1011,7 hPa 0,2 l/m N 0,00 h 13 W/m 0,0 km/h (0 Bft)
02.02.2014 09:00 0,8 C 97 % 1012,5 hPa 0,6 l/m N 0,00 h 59 W/m 0,8 km/h (0 Bft)
02.02.2014 10:00 1,7 C 97 % 1013,0 hPa 0,0 l/m W 0,00 h 57 W/m 4,9 km/h (1 Bft)
02.02.2014 11:00 2,1 C 97 % 1013,9 hPa 0,0 l/m W 0,00 h 62 W/m 2,1 km/h (1 Bft)
02.02.2014 12:00 2,4 C 96 % 1014,3 hPa 0,0 l/m W 0,00 h 38 W/m 4,5 km/h (1 Bft)
02.02.2014 13:00 2,4 C 97 % 1014,2 hPa 0,0 l/m N 0,00 h 39 W/m 3,5 km/h (1 Bft)
02.02.2014 14:00 2,5 C 97 % 1014,1 hPa 0,0 l/m N 0,00 h 40 W/m 1,5 km/h (1 Bft)
02.02.2014 15:00 2,7 C 97 % 1014,9 hPa 0,0 l/m N 0,00 h 21 W/m 1,2 km/h (1 Bft)
02.02.2014 16:00 2,6 C 97 % 1015,5 hPa 0,0 l/m N 0,00 h 11 W/m 0,0 km/h (0 Bft)
02.02.2014 17:00 2,5 C 97 % 1015,8 hPa 0,0 l/m N 0,00 h 5 W/m 0,0 km/h (0 Bft)
02.02.2014 18:00 2,3 C 97 % 1016,4 hPa 0,2 l/m N 0,00 h 0 W/m 0,0 km/h (0 Bft)
02.02.2014 19:00 2,3 C 97 % 1016,7 hPa 0,4 l/m W 0,00 h 0 W/m 2,8 km/h (1 Bft)
02.02.2014 20:00 2,2 C 97 % 1016,8 hPa 0,2 l/m W-NW 0,00 h 0 W/m 4,4 km/h (1 Bft)
02.02.2014 21:00 1,8 C 97 % 1016,9 hPa 0,0 l/m W-NW 0,00 h 0 W/m 3,9 km/h (1 Bft)
02.02.2014 22:00 1,5 C 97 % 1016,9 hPa 0,2 l/m W-NW 0,00 h 0 W/m 5,5 km/h (1 Bft)
02.02.2014 23:00 1,3 C 97 % 1016,8 hPa 0,2 l/m N-NW 0,00 h 0 W/m 6,0 km/h (2 Bft)
Min-Datum _ 01.02.14 28.01.14 27.01.14 - - - - 27.01.14
_ Min-Zeit 06:45 15:15 02:05 - - - - 18:45
Minimum _ -4,8 C 68 % 996,7 hPa - - - - 0,0 km/h (0 Bft)
Max-Datum _ 01.02.14 27.01.14 02.02.14 27.01.14 - 27.01.14 27.01.14 27.01.14
_ Max-Zeit 13:35 03:20 22:00 10:05 - 11:35 12:30 04:30
Maximum _ 6,2 C 98 % 1017,1 hPa 2,2 l/m - 0,08 h 478 W/m 33,8 km/h
W-SW (5 Bft)
Durchschnitt _ 0,2 C 91 % 1004,7 hPa #7,6 l/m W-SW #20:50 h 122 W/m 6,3 km/h (2 Bft)